{"data":{"norad_id":65058,"intl_designator":"2025-165C","name":"STARLINK-34779","alt_names":[],"object_type":"PAYLOAD","status":"ACTIVE","operator":null,"country":"US","launch_date":"2025-07-31","launch_site_code":"AFWTR","launch_vehicle":null,"mission":null,"orbit_class":"UNKNOWN","rcs_meters":null,"size_class":null,"mass_kg":null,"dimensions":null,"purposes":["comms"],"wikipedia_slug":null,"has_3d_model":false,"image_url":null,"decayed_at":null,"tle_current":{"epoch":"2026-09-20T16:06:12.367008Z","epoch_age_seconds":106143,"freshness":"FRESH","line1":"1 65058U 25165C   26263.67097647  .00023601  00000+0  73107-3 0  9990","line2":"2 65058  97.2845 334.9163 0001210  85.7255 274.4126 15.33445561 64155","mean_motion":15.33445561,"eccentricity":0.000121,"inclination_deg":97.2845,"raan_deg":334.9163,"arg_perigee_deg":85.7255,"mean_anomaly_deg":274.4126,"bstar":0.00073107,"rev_number":6415,"period_min":93.906170301927,"perigee_km":464.71342023819,"apogee_km":466.36959043648,"semimajor_km":6843.6785053373,"source":"CELESTRAK","updated_at":"2026-09-21T09:00:35.498107Z"}}}